Location: Camerons Lookout
(40.9833°S, 175.9333°E)
Time: 20:05:54
(UTC+00:00)

CZ-4B R/B - Pass Details

Date: 14 January 2026
Orbit: 700 x 797 km, 98.9° (Epoch: 13 February)

Event Time Altitude Azimuth Distance (km) Brightness Sun altitude
Rises 10:56:56 0° 173° (S) 3,212 7.7 -24.5°
Reaches altitude 10° 10:59:21 10° 179° (S) 2,266 6.8 -24.6°
Maximum altitude 11:04:01 43° 249° (WSW) 1,017 4.3 -25.0°
Enters shadow 11:05:50 30° 298° (WNW) 1,275 4.5 -25.1°
